Vertical_Velocity
12 2 4 13 13 21 3 -1 0 1 -5 -3 -2 4 6 0 -5 0 -0 -1 -1 -1 2 -1 0 1 -2 -1 -0 0 -2 -0 3 -7 1 -3 3 -2 -3 0 0 -1 -5 -5 4
14 24 -1 10 25 44 -7 3 -2 -1 -4 2 4 -2 -2 0 2 -0 -2 0 1 -2 -1 -2 -2 -1 -2 -1 -0 -0 -1 -1 0 1 1 -2 -2 -1 1 5 -13 -0 2 -0 -2
-8 -15 3 -9 24 26 24 7 -3 -4 2 0 -3 -2 0 0 -1 -2 1 2 -0 -1 -1 -1 -1 0 -1 -0 -1 -1 3 -3 0 -4 -3 -3 1 2 -4 8 -7 0 -2 -2 -0
5 0 -27 18 18 -2 15 11 -7 1 -4 -4 -2 1 2 2 -4 -2 -1 1 -2 0 -0 -1 0 -1 5 -2 1 -2 5 -6 3 -3 -5 0 3 -4 5 -3 -3 -1 1 -0 -5
-1 2 -2 -0 26 20 12 -5 -4 -1 -1 -1 -0 1 -1 -1 -2 -3 -2 -3 -1 -2 -0 1 -5 -1 -0 -4 -2 -2 -1 -5 -2 -1 -2 0 -3 -8 8 -11 1 -2 -4 -5 -1
-1 -5 -3 40 24 15 0 3 -0 -4 -2 0 1 1 1 1 1 -0 -2 -2 -2 -2 -2 -1 -0 -2 -2 -5 -2 -4 -2 -3 -5 -3 -0 -1 1 -6 2 -0 -5 -5 -1 -3 -3
-8 3 -18 29 5 -4 10 20 1 4 -1 1 1 2 -3 2 4 1 0 -1 -1 -1 -2 -1 -2 -3 -2 -5 -4 -3 -5 -2 -2 -2 -4 -3 10 -13 1 -6 -3 -1 -3 -3 -5
-8 -2 -9 -2 12 -5 -2 -1 -1 -2 -2 2 3 1 -2 1 1 -0 -0 -1 -2 -3 -3 -2 -3 -3 -3 -4 -5 -3 -4 -5 -3 -5 -5 -1 22 -18 -10 -4 2 -0 -4 -10 4
-11 -8 -9 -20 5 -4 0 7 4 1 1 2 1 1 -1 -0 -1 -1 -2 -2 -2 -1 -2 -2 -2 -3 -2 -4 -3 -1 -4 -1 -0 -5 -1 -6 15 -3 -9 -3 2 -5 3 10 -1
12 7 -7 -7 -0 4 4 2 3 -3 -1 -1 1 1 3 -2 -1 0 -1 -0 -0 -0 -1 -1 -3 -2 -2 -0 -1 -1 -1 -2 -1 -1 -0 -7 15 -11 2 -7 -7 4 -4 -5 -2
17 9 4 8 -6 -1 10 3 -4 0 2 2 1 -2 0 -0 -1 0 -1 -2 -2 -3 -2 -3 -3 -1 -0 -0 -2 -1 0 1 -4 -1 -6 -5 1 0 -5 -6 -1 -5 -5 -1 -4
-20 -16 -5 -1 0 1 -15 -4 1 9 -2 -0 -2 -2 0 -2 -3 -2 -1 -0 -1 1 -0 1 0 -0 -2 -1 -0 -1 -2 -2 3 -4 -9 -3 0 -4 -7 -2 -9 -2 -5 -4 -1
-8 -9 -9 -7 -9 -3 -10 -5 -2 -2 2 -4 -2 -2 -2 -1 -3 -3 -2 -2 -1 -1 -1 -0 -1 -1 0 0 -2 -3 -2 -2 -3 -4 -5 -2 -6 3 -10 1 1 1 -3 -1 -2
-6 -4 4 -5 -16 -1 -4 0 1 -1 -7 -5 -3 -3 -2 -1 -1 -1 0 1 2 1 -1 -2 -0 -1 -1 -2 -4 -4 -2 -2 -4 -1 -1 -2 -7 -4 -4 -1 1 -7 -10 -7 -5
-7 -9 -0 1 -4 -1 -2 -1 -4 -5 -3 1 2 0 -0 0 2 3 1 -2 -2 -1 -1 -1 -1 -0 -2 -6 -3 -0 -1 -1 -2 -1 -3 -3 -4 -3 -5 -7 -8 -5 -3 -4 -1
-4 2 -1 -2 -3 -6 1 0 -6 -4 1 1 -3 -3 -3 -3 -3 -2 -1 -0 -1 -1 0 -1 -1 -3 -3 -0 -1 -2 -2 -2 -1 -3 -3 -1 -9 -3 -2 -4 -3 -1 -3 -5 -2
1 -2 -3 -4 -1 2 1 -6 5 3 -2 -3 -3 -3 -3 -3 -1 -1 -1 -2 -3 -3 -2 -0 -1 -2 -2 -1 -2 -2 -0 -1 -2 -2 -3 -5 -3 -3 1 -1 -2 0 -2 -1 -6
-4 -2 2 5 7 3 2 4 0 -3 -2 -1 1 2 1 1 -0 0 0 -0 -0 -1 -1 -1 -1 -0 -0 -2 -2 -2 -1 -1 -3 -3 -3 -6 -2 -4 -3 -2 -5 -0 -1 -3 -2
-2 -3 -4 -8 -12 -7 -5 -4 -1 -1 -5 -2 -3 -2 -0 0 0 -1 -1 -1 -2 -2 -2 -2 -1 -1 -1 -2 -2 -4 -2 1 -3 -5 -2 -3 -3 -3 -4 -2 -4 -2 1 -0 -2
-0 1 -2 -3 0 -1 -2 -5 -6 -6 -4 -2 1 1 1 -1 -3 -3 -2 -2 -1 0 1 0 -1 -1 -1 -2 -2 -0 0 2 1 -2 -2 -3 -2 -2 -0 -2 -2 -3 -1 -0 -0
-1 2 1 1 -2 -2 -4 -4 -2 3 2 -0 -1 -1 -3 -4 -3 -1 -0 -1 -1 -1 -1 -1 -0 1 1 0 0 -1 -2 -3 -4 -2 -2 -2 -1 -2 -0 -1 -1 -0 -0 2 3
-1 -4 -1 -1 0 -2 2 0 0 -0 -4 -3 -3 -3 -3 -3 -2 -3 -0 0 -0 -1 -1 -1 -2 -2 -2 -1 -1 -2 -1 0 1 -0 -1 -3 -4 -2 -1 -2 -4 -0 -2 -3 -3
-1 -0 -1 -1 -2 -2 -2 -1 -1 1 -0 1 -1 -1 -0 2 1 2 -1 0 -2 -1 -1 -2 -1 -2 -3 -4 -2 -1 -1 -1 -0 -3 -4 -3 0 -1 -1 -1 -2 -3 -2 -1 1
-2 -0 -2 -2 -1 -0 -2 -4 -3 -4 -3 -1 -1 1 -1 -2 -2 -1 -1 -1 -3 -3 -3 -3 -2 -2 -3 -3 -1 -2 -2 -2 -5 -3 0 -2 -1 -6 -2 -0 5 2 -2 -3 -1
-2 -3 0 -1 -1 -1 1 1 1 -2 -1 -0 -0 -1 -1 1 1 -1 -1 -2 -1 0 -2 -2 -2 -0 -0 0 -2 -3 -1 -1 0 -1 -3 -2 0 2 -0 0 -2 -1 -2 -3 -3
0 1 -3 -1 -1 -1 -3 -3 0 -0 -1 -1 -1 -2 -0 -1 -1 -1 -2 -2 -2 -1 -0 2 -0 1 -4 -1 1 2 -2 -1 -2 -3 5 2 -1 1 -1 -0 2 1 4 3 2
-0 1 1 -0 0 1 -0 2 -1 0 -2 -1 -2 1 1 2 1 0 0 -0 -2 2 2 -1 0 -0 11 2 2 -1 -4 -1 -1 -2 -1 2 -1 3 -1 -2 -2 0 -1 0 0
Height
5588 5599 5611 5625 5639 5651 5660 5672 5685 5699 5712 5724 5736 5747 5758 5764 5772 5779 5784 5790 5795 5800 5804 5808 5811 5813 5816 5818 5821 5823 5825 5827 5830 5830 5832 5834 5834 5835 5836 5835 5836 5836 5835 5834 5837
5595 5599 5611 5623 5638 5651 5658 5669 5682 5694 5708 5722 5732 5743 5753 5762 5770 5777 5782 5787 5792 5796 5801 5805 5808 5811 5814 5816 5819 5820 5823 5824 5826 5827 5827 5830 5829 5831 5832 5830 5828 5831 5831 5830 5829
5600 5607 5616 5636 5642 5650 5657 5669 5682 5694 5707 5718 5729 5740 5750 5759 5767 5773 5779 5784 5789 5794 5798 5802 5806 5809 5811 5813 5816 5818 5820 5821 5822 5823 5823 5825 5826 5825 5826 5825 5824 5824 5823 5823 5822
5606 5613 5623 5633 5643 5650 5659 5669 5681 5692 5704 5717 5728 5739 5749 5757 5766 5772 5777 5782 5787 5791 5796 5799 5803 5806 5808 5810 5812 5814 5816 5816 5818 5818 5819 5819 5818 5819 5818 5816 5818 5816 5816 5815 5813
5607 5615 5625 5636 5646 5654 5661 5672 5684 5693 5703 5714 5726 5737 5747 5755 5762 5769 5774 5780 5784 5789 5793 5796 5799 5802 5804 5806 5807 5809 5811 5811 5812 5813 5812 5812 5811 5811 5809 5808 5807 5807 5806 5806 5806
5617 5620 5630 5644 5649 5658 5666 5677 5687 5697 5705 5715 5727 5736 5746 5753 5759 5766 5773 5778 5782 5786 5789 5792 5795 5798 5800 5801 5803 5804 5805 5806 5806 5806 5806 5806 5804 5802 5801 5800 5798 5797 5796 5796 5795
5625 5630 5639 5645 5655 5664 5675 5681 5692 5700 5707 5715 5725 5735 5744 5752 5759 5764 5770 5774 5779 5783 5786 5789 5791 5793 5795 5796 5797 5798 5798 5799 5799 5799 5797 5797 5797 5793 5791 5788 5788 5785 5783 5782 5781
5628 5636 5645 5649 5663 5673 5681 5689 5697 5705 5710 5716 5724 5734 5743 5750 5756 5762 5768 5772 5776 5779 5782 5785 5786 5788 5789 5790 5790 5791 5792 5792 5791 5790 5790 5789 5789 5782 5780 5779 5776 5774 5771 5768 5765
5636 5644 5652 5664 5671 5680 5688 5696 5702 5707 5713 5719 5726 5735 5744 5750 5756 5761 5766 5770 5773 5775 5778 5780 5781 5782 5783 5783 5784 5784 5784 5784 5783 5782 5782 5780 5778 5771 5769 5768 5765 5762 5758 5755 5751
5645 5651 5664 5674 5679 5687 5696 5703 5709 5715 5720 5726 5733 5742 5747 5751 5755 5759 5763 5766 5769 5771 5773 5775 5775 5776 5776 5776 5777 5777 5776 5775 5774 5774 5772 5769 5769 5763 5760 5757 5752 5748 5742 5737 5734
5658 5664 5673 5681 5691 5701 5709 5715 5719 5724 5728 5734 5738 5743 5747 5751 5755 5757 5760 5763 5765 5767 5768 5770 5770 5770 5771 5771 5770 5770 5769 5769 5766 5764 5764 5759 5756 5752 5749 5745 5741 5738 5733 5729 5726
5676 5680 5688 5695 5704 5712 5716 5722 5726 5732 5735 5738 5741 5744 5747 5751 5754 5756 5758 5761 5762 5763 5764 5766 5766 5766 5766 5766 5765 5764 5763 5762 5760 5757 5756 5752 5750 5747 5744 5741 5738 5733 5728 5723 5718
5686 5692 5700 5709 5714 5721 5724 5729 5732 5736 5740 5743 5744 5746 5749 5752 5754 5756 5758 5759 5760 5761 5761 5762 5762 5762 5761 5761 5761 5760 5758 5757 5756 5754 5751 5750 5747 5743 5741 5737 5732 5725 5719 5714 5709
5696 5703 5711 5718 5724 5725 5730 5733 5735 5739 5743 5746 5747 5749 5750 5751 5753 5754 5755 5758 5758 5759 5759 5759 5759 5759 5758 5757 5757 5756 5756 5755 5753 5751 5749 5747 5744 5739 5735 5731 5725 5717 5713 5707 5702
5707 5713 5719 5726 5729 5733 5737 5738 5740 5741 5744 5748 5748 5748 5749 5752 5753 5754 5756 5756 5756 5756 5757 5757 5757 5756 5756 5756 5755 5755 5754 5753 5751 5749 5747 5744 5741 5737 5731 5726 5719 5714 5708 5704 5700
5722 5725 5728 5732 5734 5739 5742 5743 5745 5747 5746 5749 5751 5751 5753 5754 5755 5755 5755 5756 5756 5756 5756 5756 5756 5756 5755 5754 5754 5754 5754 5752 5749 5747 5744 5741 5739 5734 5729 5723 5718 5713 5708 5703 5698
5735 5737 5738 5739 5741 5743 5745 5748 5751 5751 5753 5754 5754 5754 5755 5756 5756 5756 5756 5757 5757 5758 5757 5756 5756 5755 5755 5755 5755 5753 5752 5751 5749 5745 5743 5741 5737 5731 5728 5723 5718 5713 5708 5703 5698
5745 5745 5746 5747 5748 5750 5753 5755 5755 5755 5756 5757 5757 5758 5759 5758 5759 5758 5757 5757 5757 5757 5757 5756 5757 5756 5756 5756 5755 5753 5750 5748 5746 5744 5742 5739 5736 5734 5730 5724 5719 5714 5709 5704 5698
5754 5754 5753 5754 5756 5758 5759 5759 5759 5760 5760 5761 5761 5760 5760 5760 5759 5758 5758 5758 5758 5757 5758 5757 5756 5756 5755 5754 5753 5750 5748 5746 5745 5743 5741 5739 5737 5734 5730 5725 5719 5714 5710 5705 5698
5764 5763 5762 5762 5763 5764 5765 5765 5765 5764 5764 5763 5763 5762 5761 5761 5760 5759 5759 5759 5759 5758 5757 5757 5757 5755 5754 5753 5752 5750 5748 5747 5744 5742 5740 5739 5736 5734 5730 5724 5720 5715 5710 5704 5698
5773 5771 5771 5769 5768 5769 5768 5768 5766 5766 5767 5767 5766 5766 5766 5765 5765 5764 5764 5763 5762 5761 5760 5759 5758 5758 5755 5753 5751 5750 5747 5745 5743 5741 5739 5737 5735 5732 5728 5724 5720 5715 5710 5704 5699
5778 5777 5776 5775 5775 5772 5772 5772 5771 5771 5770 5770 5770 5769 5769 5769 5769 5768 5767 5766 5765 5764 5762 5761 5760 5758 5756 5754 5752 5749 5747 5745 5743 5741 5737 5735 5734 5729 5726 5723 5718 5714 5709 5704 5699
5783 5781 5780 5779 5779 5777 5776 5775 5774 5773 5773 5773 5772 5772 5772 5771 5771 5770 5769 5768 5767 5765 5764 5763 5761 5758 5756 5755 5752 5749 5747 5744 5742 5739 5737 5733 5732 5727 5725 5721 5717 5713 5709 5704 5699
5785 5785 5784 5782 5780 5781 5780 5779 5778 5777 5776 5775 5775 5774 5773 5772 5771 5770 5769 5768 5767 5765 5764 5762 5760 5758 5756 5754 5752 5749 5746 5743 5741 5738 5736 5732 5729 5726 5724 5721 5717 5712 5706 5702 5697
5786 5785 5784 5784 5783 5781 5780 5780 5779 5778 5777 5777 5776 5775 5774 5773 5771 5770 5768 5767 5765 5764 5763 5762 5759 5757 5755 5753 5750 5748 5745 5742 5740 5737 5734 5731 5727 5724 5720 5717 5713 5709 5704 5699 5695
5785 5784 5783 5782 5782 5781 5781 5779 5778 5777 5776 5776 5774 5773 5772 5771 5770 5769 5768 5766 5764 5763 5760 5759 5758 5756 5753 5750 5748 5746 5743 5741 5738 5735 5732 5728 5724 5720 5717 5714 5710 5706 5703 5699 5694
5781 5781 5780 5780 5779 5778 5778 5778 5777 5776 5775 5774 5772 5771 5770 5769 5767 5766 5765 5763 5762 5761 5759 5756 5754 5752 5752 5748 5746 5745 5741 5738 5735 5731 5728 5725 5722 5718 5714 5710 5706 5703 5699 5696 5692